YAOGAN 21

导读

YAOGAN 21(遥感二十一号)是中国研制的遥感卫星,于2014年9月8日在太原卫星发射中心,由长征四号乙运载火箭发射升空,本次任务同时搭载发射了天拓二号卫星,这也是长征系列运载火箭第193次飞行。卫星顺利进入预定轨道,主要承担科学试验、国土资源普查、农作物估产以及防灾减灾等任务,将为相关领域发展提供数据支撑。

Basic Information
目录编号:
40143
目录名称:
YAOGAN 21
国际标识:
2014-053A
轨道中心:
EARTH
卫星名称:
YAOGAN 21
卫星全名:
--
卫星状态:
在轨 (已飞行4390 天)
发射日期:
2014-09-08 UTC
国别 :
中国 (CN)
星等 :
--
This satellite is enrolled in the Space Conjunction Data Service (SCDS) and the current flight risk assessment level is: High Risk
Orbit Information
数据来源 国际轨道数据 AOE轨道数据
星历时间 2026-09-15T20:48:01+0800
9小时前
查看轨道信息
2026-09-15T23:00:00+0800
7小时前
查看轨道信息
半长轴 6861.809km 6861.775km
偏心率 0.0009316 0.000956
轨道倾角 97.140° 97.140°
近地点辐角 124.262° 127.127°
升交点赤经 294.921° 295.008°
平近点角 235.951° 16.737°
近地点 477.279km 477.078km
远地点 490.065km 490.198km
周期 94.280分钟 94.279分钟
每日圈数 15.27372 15.273835
Detailed Information
使用方式:
暂无
2D Orbit Map
3D Orbit Map
Orbit Altitude Analysis Chart
Orbit Inclination Analysis Chart
Orbit Comprehensive Analysis Chart
View Comprehensive Chart
Conjunction Data List
Event ID Objects TCA Miss Dist (km) Collision Risk Probability Collision Risk Index (CRI) Action
CDM_260917-092904-014306-386524
2026-09-17T
09:29:09+0000
0.859 km
远距离
4.610004E-5 中风险 0.68
CDM_260917-185104-014306-661521
2026-09-17T
18:51:39+0000
2.537 km
极远距离
1.556684E-6 低风险 0.39
CDM_260916-063404-014306-321628
BOTSAT-1 (63216)
2026-09-16T
06:34:47+0000
2.847 km
极远距离
1.407248E-6 低风险 0.38
CDM_260916-154104-014306-740422
2026-09-16T
15:41:20+0000
2.796 km
极远距离
1.11319E-6 低风险 0.36
CDM_260915-195704-014306-205122
2026-09-15T
19:57:39+0000
2.869 km
极远距离
9.596156E-7 极低风险 0.35
Miss Distance Evolution Trend with All Objects Subscribe to Flight Safety Assessment
Collision Probability Evolution Trend with All Objects Subscribe to Flight Safety Assessment